| time (UTC) | temp F | wind direction | speed MPH | gust MPH | rain 1hr in | rain 24hr in | rain mn in | humidity % | barometer mb |
| 20260510191203 | 86 | 290 | 4.0 | 12.0 | 0.00 | 0.00 | 0.00 | 29 | 1012.4 |
| 20260510190704 | 86 | 140 | 3.0 | 10.0 | 0.00 | 0.00 | 0.00 | 29 | 1012.5 |
| 20260510190436 | 86 | 162 | 3.0 | 5.0 | 0.00 | 0.00 | 0.00 | 28 | 1012.6 |
| 20260510185700 | 86 | 193 | 2.0 | 13.0 | 0.00 | 0.00 | 0.00 | 28 | 1012.6 |
| 20260510185158 | 86 | 244 | 5.0 | 13.0 | 0.00 | 0.00 | 0.00 | 28 | 1012.7 |
| 20260510184659 | 85 | 203 | 7.0 | 9.0 | 0.00 | 0.00 | 0.00 | 29 | 1012.7 |
| 20260510184152 | 85 | 286 | 3.0 | 9.0 | 0.00 | 0.00 | 0.00 | 30 | 1012.7 |
| 20260510183652 | 85 | 223 | 3.0 | 11.0 | 0.00 | 0.00 | 0.00 | 28 | 1012.7 |
| 20260510183152 | 85 | 202 | 7.0 | 11.0 | 0.00 | 0.00 | 0.00 | 29 | 1012.7 |
| 20260510182653 | 84 | 217 | 4.0 | 10.0 | 0.00 | 0.00 | 0.00 | 29 | 1012.7 |
| 20260510182152 | 84 | 217 | 5.0 | 10.0 | 0.00 | 0.00 | 0.00 | 29 | 1012.7 |
| 20260510181653 | 84 | 204 | 5.0 | 10.0 | 0.00 | 0.00 | 0.00 | 29 | 1012.7 |
| 20260510181152 | 83 | 243 | 6.0 | 14.0 | 0.00 | 0.00 | 0.00 | 29 | 1012.8 |
| 20260510180653 | 84 | 212 | 8.0 | 14.0 | 0.00 | 0.00 | 0.00 | 29 | 1012.9 |
| 20260510180152 | 84 | 173 | 6.0 | 13.0 | 0.00 | 0.00 | 0.00 | 29 | 1012.9 |
| 20260510175653 | 83 | 209 | 7.0 | 13.0 | 0.00 | 0.00 | 0.00 | 28 | 1012.9 |
| 20260510175439 | 83 | 200 | 4.0 | 9.0 | 0.00 | 0.00 | 0.00 | 29 | 1013.0 |
| 20260510174653 | 84 | 185 | 5.0 | 12.0 | 0.00 | 0.00 | 0.00 | 30 | 1013.0 |
| 20260510174152 | 83 | 240 | 6.0 | 12.0 | 0.00 | 0.00 | 0.00 | 31 | 1012.9 |
| 20260510173653 | 84 | 231 | 5.0 | 12.0 | 0.00 | 0.00 | 0.00 | 30 | 1013.0 |
| 20260510173151 | 84 | 279 | 5.0 | 13.0 | 0.00 | 0.00 | 0.00 | 30 | 1013.0 |
| 20260510172653 | 83 | 188 | 3.0 | 13.0 | 0.00 | 0.00 | 0.00 | 32 | 1012.9 |
| 20260510172151 | 83 | 123 | 3.0 | 13.0 | 0.00 | 0.00 | 0.00 | 32 | 1012.9 |
| 20260510171652 | 83 | 172 | 8.0 | 13.0 | 0.00 | 0.00 | 0.00 | 32 | 1013.0 |
| 20260510171152 | 83 | 199 | 8.0 | 11.0 | 0.00 | 0.00 | 0.00 | 31 | 1013.1 |
| 20260510170653 | 83 | 288 | 4.0 | 10.0 | 0.00 | 0.00 | 0.00 | 32 | 1013.1 |
| 20260510170152 | 83 | 319 | 4.0 | 10.0 | 0.00 | 0.00 | 0.00 | 32 | 1013.3 |
| 20260510165653 | 82 | 262 | 2.0 | 6.0 | 0.00 | 0.00 | 0.00 | 32 | 1013.4 |
| 20260510165152 | 82 | 175 | 2.0 | 10.0 | 0.00 | 0.00 | 0.00 | 32 | 1013.3 |
| 20260510164652 | 83 | 233 | 5.0 | 10.0 | 0.00 | 0.00 | 0.00 | 32 | 1013.4 |
| 20260510164151 | 83 | 255 | 4.0 | 9.0 | 0.00 | 0.00 | 0.00 | 31 | 1013.5 |
| 20260510163653 | 83 | 223 | 3.0 | 9.0 | 0.00 | 0.00 | 0.00 | 31 | 1013.4 |
| 20260510163431 | 82 | 316 | 4.0 | 9.0 | 0.00 | 0.00 | 0.00 | 31 | 1013.5 |
| 20260510162654 | 82 | 316 | 4.0 | 9.0 | 0.00 | 0.00 | 0.00 | 30 | 1013.4 |
| 20260510162151 | 82 | 237 | 4.0 | 9.0 | 0.00 | 0.00 | 0.00 | 31 | 1013.5 |
| 20260510161916 | 82 | 182 | 5.0 | 9.0 | 0.00 | 0.00 | 0.00 | 32 | 1013.6 |
| 20260510161136 | 82 | 155 | 2.0 | 7.0 | 0.00 | 0.00 | 0.00 | 34 | 1013.7 |
| 20260510160631 | 81 | 180 | 2.0 | 6.0 | 0.00 | 0.00 | 0.00 | 35 | 1013.7 |
| 20260510160131 | 81 | 185 | 3.0 | 7.0 | 0.00 | 0.00 | 0.00 | 36 | 1013.7 |
| 20260510155905 | 80 | 188 | 2.0 | 7.0 | 0.00 | 0.00 | 0.00 | 37 | 1013.7 |
| 20260510155411 | 80 | 216 | 2.0 | 6.0 | 0.00 | 0.00 | 0.00 | 38 | 1013.7 |
| 20260510154631 | 80 | 231 | 2.0 | 10.0 | 0.00 | 0.00 | 0.00 | 37 | 1013.8 |
| 20260510154130 | 80 | 240 | 6.0 | 10.0 | 0.00 | 0.00 | 0.00 | 37 | 1013.8 |
| 20260510153922 | 81 | 247 | 6.0 | 9.0 | 0.00 | 0.00 | 0.00 | 37 | 1013.8 |
| 20260510153130 | 80 | 204 | 2.0 | 5.0 | 0.00 | 0.00 | 0.00 | 38 | 1013.8 |
| 20260510152625 | 80 | 203 | 3.0 | 5.0 | 0.00 | 0.00 | 0.00 | 38 | 1013.9 |
| 20260510152124 | 80 | 56 | 2.0 | 6.0 | 0.00 | 0.00 | 0.00 | 39 | 1013.9 |
| 20260510151620 | 79 | 58 | 3.0 | 6.0 | 0.00 | 0.00 | 0.00 | 40 | 1013.9 |
| 20260510151120 | 78 | 117 | 3.0 | 5.0 | 0.00 | 0.00 | 0.00 | 40 | 1014.0 |
| 20260510150618 | 78 | 231 | 4.0 | 6.0 | 0.00 | 0.00 | 0.00 | 41 | 1014.1 |
| 20260510150113 | 78 | 234 | 0.0 | 6.0 | 0.00 | 0.00 | 0.00 | 40 | 1014.1 |
| 20260510145844 | 78 | 271 | 4.0 | 7.0 | 0.00 | 0.00 | 0.00 | 42 | 1014.1 |
| 20260510145109 | 77 | 196 | 5.0 | 7.0 | 0.00 | 0.00 | 0.00 | 42 | 1014.0 |
| 20260510144608 | 78 | 214 | 4.0 | 6.0 | 0.00 | 0.00 | 0.00 | 41 | 1014.0 |
| 20260510144102 | 78 | 288 | 2.0 | 6.0 | 0.00 | 0.00 | 0.00 | 41 | 1013.9 |
| 20260510143604 | 77 | 176 | 3.0 | 6.0 | 0.00 | 0.00 | 0.00 | 43 | 1013.9 |
| 20260510143102 | 77 | 302 | 2.0 | 5.0 | 0.00 | 0.00 | 0.00 | 41 | 1013.8 |
| 20260510142607 | 76 | 302 | 1.0 | 5.0 | 0.00 | 0.00 | 0.00 | 42 | 1013.8 |
| 20260510142102 | 76 | 302 | 3.0 | 5.0 | 0.00 | 0.00 | 0.00 | 43 | 1013.8 |
| 20260510141600 | 76 | 303 | 3.0 | 5.0 | 0.00 | 0.00 | 0.00 | 42 | 1013.8 |
| 20260510141057 | 76 | 305 | 1.0 | 5.0 | 0.00 | 0.00 | 0.00 | 43 | 1013.8 |
| 20260510140606 | 76 | 305 | 1.0 | 4.0 | 0.00 | 0.00 | 0.00 | 44 | 1013.8 |
| 20260510140052 | 75 | 305 | 1.0 | 4.0 | 0.00 | 0.00 | 0.00 | 48 | 1013.8 |
| 20260510135553 | 74 | 305 | 0.0 | 5.0 | 0.00 | 0.00 | 0.00 | 49 | 1013.8 |
| 20260510135051 | 74 | 305 | 3.0 | 5.0 | 0.00 | 0.00 | 0.00 | 49 | 1013.8 |
| 20260510134824 | 73 | 305 | 0.0 | 4.0 | 0.00 | 0.00 | 0.00 | 52 | 1013.7 |
| 20260510134051 | 72 | 305 | 2.0 | 5.0 | 0.00 | 0.00 | 0.00 | 52 | 1013.7 |
| 20260510133548 | 72 | 305 | 3.0 | 5.0 | 0.00 | 0.00 | 0.00 | 54 | 1013.8 |
| 20260510133048 | 71 | 307 | 3.0 | 5.0 | 0.00 | 0.00 | 0.00 | 54 | 1013.7 |
| 20260510132548 | 71 | 309 | 2.0 | 5.0 | 0.00 | 0.00 | 0.00 | 57 | 1013.9 |
| 20260510132048 | 71 | 309 | 4.0 | 7.0 | 0.00 | 0.00 | 0.00 | 57 | 1013.9 |
| 20260510131825 | 70 | 314 | 5.0 | 7.0 | 0.00 | 0.00 | 0.00 | 57 | 1013.9 |
| 20260510131046 | 69 | 258 | 2.0 | 5.0 | 0.00 | 0.00 | 0.00 | 59 | 1013.9 |
| 20260510130547 | 69 | 258 | 2.0 | 5.0 | 0.00 | 0.00 | 0.00 | 60 | 1013.9 |
| 20260510130047 | 68 | 258 | 3.0 | 5.0 | 0.00 | 0.00 | 0.00 | 61 | 1013.6 |
| 20260510125540 | 68 | 252 | 3.0 | 6.0 | 0.00 | 0.00 | 0.00 | 62 | 1013.5 |
| 20260510125039 | 67 | 250 | 4.0 | 5.0 | 0.00 | 0.00 | 0.00 | 63 | 1013.5 |
| 20260510124532 | 67 | 258 | 4.0 | 6.0 | 0.00 | 0.00 | 0.00 | 64 | 1013.6 |
| 20260510124303 | 67 | 292 | 4.0 | 6.0 | 0.00 | 0.00 | 0.00 | 66 | 1013.5 |
| 20260510123529 | 66 | 227 | 4.0 | 6.0 | 0.00 | 0.00 | 0.00 | 67 | 1013.6 |
| 20260510123029 | 66 | 250 | 2.0 | 7.0 | 0.00 | 0.00 | 0.00 | 67 | 1013.6 |
| 20260510122530 | 65 | 233 | 5.0 | 7.0 | 0.00 | 0.00 | 0.00 | 68 | 1013.5 |
| 20260510122030 | 65 | 272 | 4.0 | 6.0 | 0.00 | 0.00 | 0.00 | 68 | 1013.4 |
| 20260510121530 | 65 | 244 | 4.0 | 6.0 | 0.00 | 0.00 | 0.00 | 69 | 1013.2 |
| 20260510121031 | 65 | 265 | 4.0 | 7.0 | 0.00 | 0.00 | 0.00 | 69 | 1013.0 |
| 20260510120528 | 65 | 269 | 3.0 | 7.0 | 0.00 | 0.00 | 0.00 | 70 | 1013.0 |
| 20260510120025 | 64 | 245 | 4.0 | 7.0 | 0.00 | 0.00 | 0.00 | 70 | 1013.0 |
| 20260510115801 | 64 | 290 | 1.0 | 7.0 | 0.00 | 0.00 | 0.00 | 71 | 1013.0 |
| 20260510115026 | 64 | 274 | 5.0 | 7.0 | 0.00 | 0.00 | 0.00 | 71 | 1012.9 |
| 20260510114520 | 63 | 293 | 4.0 | 6.0 | 0.00 | 0.00 | 0.00 | 72 | 1012.8 |
| 20260510114019 | 63 | 299 | 2.0 | 6.0 | 0.00 | 0.00 | 0.00 | 74 | 1012.7 |
| 20260510113508 | 63 | 299 | 4.0 | 6.0 | 0.00 | 0.00 | 0.00 | 74 | 1012.7 |
| 20260510113237 | 62 | 275 | 4.0 | 6.0 | 0.00 | 0.00 | 0.00 | 76 | 1012.6 |
| 20260510112503 | 62 | 288 | 4.0 | 6.0 | 0.00 | 0.00 | 0.00 | 77 | 1012.5 |
| 20260510112001 | 62 | 279 | 2.0 | 5.0 | 0.00 | 0.00 | 0.00 | 78 | 1012.4 |
| 20260510111504 | 62 | 279 | 2.0 | 5.0 | 0.00 | 0.00 | 0.00 | 79 | 1012.5 |
| 20260510110957 | 61 | 278 | 2.0 | 5.0 | 0.00 | 0.00 | 0.00 | 79 | 1012.4 |
| 20260510110453 | 61 | 276 | 2.0 | 5.0 | 0.00 | 0.00 | 0.00 | 80 | 1012.3 |
| 20260510105952 | 61 | 272 | 3.0 | 6.0 | 0.00 | 0.00 | 0.00 | 80 | 1012.3 |
| 20260510105452 | 61 | 272 | 2.0 | 6.0 | 0.00 | 0.00 | 0.00 | 80 | 1012.2 |
| 20260510104952 | 61 | 269 | 1.0 | 5.0 | 0.00 | 0.00 | 0.00 | 80 | 1012.2 |
| 20260510104451 | 61 | 268 | 3.0 | 5.0 | 0.00 | 0.00 | 0.00 | 81 | 1012.1 |
| 20260510104226 | 61 | 233 | 2.0 | 5.0 | 0.00 | 0.00 | 0.00 | 81 | 1012.0 |
| 20260510103451 | 61 | 233 | 2.0 | 5.0 | 0.00 | 0.00 | 0.00 | 80 | 1012.0 |
| 20260510102953 | 60 | 233 | 2.0 | 5.0 | 0.00 | 0.00 | 0.00 | 80 | 1011.9 |
| 20260510102451 | 60 | 233 | 3.0 | 5.0 | 0.00 | 0.00 | 0.00 | 80 | 1011.8 |
| 20260510101952 | 60 | 233 | 2.0 | 4.0 | 0.00 | 0.00 | 0.00 | 80 | 1011.8 |
| 20260510101438 | 60 | 233 | 2.0 | 3.0 | 0.00 | 0.00 | 0.00 | 81 | 1011.7 |
| 20260510100937 | 61 | 233 | 2.0 | 2.0 | 0.00 | 0.00 | 0.00 | 81 | 1011.6 |
| 20260510100431 | 61 | 233 | 2.0 | 4.0 | 0.00 | 0.00 | 0.00 | 81 | 1011.4 |
| 20260510095930 | 61 | 233 | 2.0 | 4.0 | 0.00 | 0.00 | 0.00 | 81 | 1011.3 |
| 20260510095705 | 61 | 233 | 3.0 | 4.0 | 0.00 | 0.00 | 0.00 | 81 | 1011.3 |
| 20260510094928 | 61 | 233 | 2.0 | 3.0 | 0.00 | 0.00 | 0.00 | 81 | 1011.4 |
| 20260510094436 | 61 | 233 | 0.0 | 3.0 | 0.00 | 0.00 | 0.00 | 81 | 1011.3 |
| 20260510093659 | 61 | 233 | 1.0 | 3.0 | 0.00 | 0.00 | 0.00 | 81 | 1011.3 |
| 20260510092923 | 61 | 233 | 1.0 | 4.0 | 0.00 | 0.00 | 0.00 | 81 | 1011.3 |
| 20260510092422 | 61 | 233 | 2.0 | 4.0 | 0.00 | 0.00 | 0.00 | 81 | 1011.2 |
| 20260510091924 | 61 | 233 | 3.0 | 4.0 | 0.00 | 0.00 | 0.00 | 80 | 1011.3 |
| 20260510091655 | 62 | 233 | 0.0 | 0.0 | 0.00 | 0.00 | 0.00 | 80 | 1011.3 |
| 20260510090924 | 62 | 233 | 0.0 | 0.0 | 0.00 | 0.00 | 0.00 | 80 | 1011.1 |
| 20260510090422 | 62 | 233 | 0.0 | 3.0 | 0.00 | 0.00 | 0.00 | 79 | 1011.1 |
| 20260510090203 | 62 | 233 | 0.0 | 3.0 | 0.00 | 0.00 | 0.00 | 79 | 1010.9 |
| 20260510085421 | 62 | 233 | 1.0 | 3.0 | 0.00 | 0.00 | 0.00 | 79 | 1010.8 |
| 20260510084923 | 62 | 233 | 2.0 | 3.0 | 0.00 | 0.00 | 0.00 | 79 | 1010.9 |
| 20260510084421 | 62 | 233 | 1.0 | 3.0 | 0.00 | 0.00 | 0.00 | 78 | 1010.9 |
| 20260510083920 | 62 | 233 | 1.0 | 4.0 | 0.00 | 0.00 | 0.00 | 78 | 1010.8 |
| 20260510083419 | 63 | 233 | 1.0 | 4.0 | 0.00 | 0.00 | 0.00 | 78 | 1010.8 |
| 20260510082917 | 63 | 233 | 1.0 | 4.0 | 0.00 | 0.00 | 0.00 | 78 | 1010.8 |
| 20260510082403 | 63 | 233 | 1.0 | 4.0 | 0.00 | 0.00 | 0.00 | 78 | 1010.9 |
| 20260510081903 | 63 | 233 | 1.0 | 2.0 | 0.00 | 0.00 | 0.00 | 77 | 1010.7 |
| 20260510081402 | 63 | 233 | 1.0 | 4.0 | 0.00 | 0.00 | 0.00 | 77 | 1010.8 |
| 20260510081153 | 63 | 233 | 2.0 | 4.0 | 0.00 | 0.00 | 0.00 | 77 | 1010.7 |
| 20260510080403 | 63 | 233 | 2.0 | 4.0 | 0.00 | 0.00 | 0.00 | 77 | 1010.7 |
| 20260510075902 | 63 | 233 | 1.0 | 3.0 | 0.00 | 0.00 | 0.00 | 77 | 1010.7 |
| 20260510075639 | 64 | 233 | 2.0 | 3.0 | 0.00 | 0.00 | 0.00 | 76 | 1010.6 |
| 20260510074901 | 64 | 233 | 2.0 | 3.0 | 0.00 | 0.00 | 0.00 | 76 | 1010.6 |
| 20260510074401 | 64 | 233 | 2.0 | 3.0 | 0.00 | 0.00 | 0.00 | 76 | 1010.5 |
| 20260510073901 | 64 | 233 | 2.0 | 4.0 | 0.00 | 0.00 | 0.00 | 76 | 1010.5 |
| 20260510073401 | 64 | 233 | 2.0 | 4.0 | 0.00 | 0.00 | 0.00 | 76 | 1010.5 |
| 20260510073126 | 64 | 233 | 2.0 | 3.0 | 0.00 | 0.00 | 0.00 | 75 | 1010.5 |
| 20260510072401 | 65 | 233 | 1.0 | 4.0 | 0.00 | 0.00 | 0.00 | 75 | 1010.6 |
| 20260510071902 | 65 | 233 | 2.0 | 4.0 | 0.00 | 0.00 | 0.00 | 75 | 1010.6 |
| 20260510071401 | 65 | 233 | 2.0 | 4.0 | 0.00 | 0.00 | 0.00 | 75 | 1010.5 |
| 20260510071139 | 65 | 233 | 3.0 | 5.0 | 0.00 | 0.00 | 0.00 | 74 | 1010.6 |
| 20260510070402 | 65 | 233 | 3.0 | 6.0 | 0.00 | 0.00 | 0.00 | 74 | 1010.5 |
| 20260510065902 | 65 | 233 | 4.0 | 6.0 | 0.00 | 0.00 | 0.00 | 74 | 1010.5 |
| 20260510065402 | 65 | 238 | 3.0 | 6.0 | 0.00 | 0.00 | 0.00 | 74 | 1010.5 |
| 20260510064902 | 65 | 285 | 4.0 | 10.0 | 0.00 | 0.00 | 0.00 | 74 | 1010.5 |
| 20260510064355 | 65 | 238 | 4.0 | 10.0 | 0.00 | 0.00 | 0.00 | 74 | 1010.5 |
| 20260510063845 | 66 | 234 | 4.0 | 9.0 | 0.00 | 0.00 | 0.00 | 74 | 1010.6 |
| 20260510063344 | 66 | 233 | 4.0 | 9.0 | 0.00 | 0.00 | 0.00 | 74 | 1010.6 |
| 20260510062850 | 66 | 234 | 5.0 | 10.0 | 0.00 | 0.00 | 0.00 | 74 | 1010.6 |
| 20260510061835 | 66 | 238 | 6.0 | 11.0 | 0.00 | 0.00 | 0.00 | 73 | 1010.6 |
| 20260510061606 | 67 | 248 | 6.0 | 9.0 | 0.00 | 0.00 | 0.00 | 73 | 1010.6 |
| 20260510060833 | 67 | 221 | 5.0 | 11.0 | 0.00 | 0.00 | 0.00 | 72 | 1010.7 |
| 20260510060330 | 67 | 202 | 5.0 | 11.0 | 0.00 | 0.00 | 0.00 | 73 | 1010.6 |
| 20260510055831 | 67 | 245 | 7.0 | 12.0 | 0.00 | 0.00 | 0.00 | 72 | 1010.6 |
| 20260510055331 | 67 | 233 | 6.0 | 14.0 | 0.00 | 0.00 | 0.00 | 72 | 1010.4 |
| 20260510054830 | 67 | 206 | 8.0 | 14.0 | 0.00 | 0.00 | 0.00 | 72 | 1010.5 |
| 20260510054331 | 67 | 231 | 8.0 | 14.0 | 0.00 | 0.00 | 0.00 | 72 | 1010.6 |
| 20260510053829 | 67 | 247 | 5.0 | 11.0 | 0.00 | 0.00 | 0.00 | 71 | 1010.7 |
| 20260510053330 | 68 | 257 | 5.0 | 11.0 | 0.00 | 0.00 | 0.00 | 71 | 1010.6 |
| 20260510052830 | 68 | 224 | 7.0 | 13.0 | 0.00 | 0.00 | 0.00 | 71 | 1010.6 |
| 20260510052329 | 68 | 238 | 7.0 | 13.0 | 0.00 | 0.00 | 0.00 | 71 | 1010.6 |
| 20260510051830 | 68 | 235 | 9.0 | 13.0 | 0.00 | 0.00 | 0.00 | 70 | 1010.6 |
| 20260510051330 | 68 | 238 | 7.0 | 12.0 | 0.00 | 0.00 | 0.00 | 70 | 1010.6 |
| 20260510051103 | 68 | 207 | 6.0 | 11.0 | 0.00 | 0.00 | 0.00 | 70 | 1010.6 |
| 20260510050612 | 68 | 214 | 7.0 | 11.0 | 0.00 | 0.00 | 0.00 | 70 | 1010.6 |
| 20260510045831 | 0 | 0.0 | 0.0 | 0.00 | 0.00 | 0.00 | 1010.5 | ||
| 20260510045330 | 0 | 0.0 | 0.0 | 0.00 | 0.00 | 0.00 | 1010.7 | ||
| 20260510045102 | 68 | 234 | 6.0 | 11.0 | 0.00 | 0.00 | 0.00 | 70 | 1010.6 |
| 20260510044330 | 68 | 234 | 6.0 | 12.0 | 0.00 | 0.00 | 0.00 | 70 | 1010.7 |
| 20260510043816 | 68 | 214 | 5.0 | 12.0 | 0.00 | 0.00 | 0.00 | 70 | 1010.7 |
| 20260510043547 | 68 | 234 | 6.0 | 11.0 | 0.00 | 0.00 | 0.00 | 69 | 1010.7 |
| 20260510043056 | 68 | 254 | 4.0 | 9.0 | 0.00 | 0.00 | 0.00 | 69 | 1010.6 |
| 20260510042309 | 68 | 238 | 5.0 | 9.0 | 0.00 | 0.00 | 0.00 | 69 | 1010.6 |
| 20260510041804 | 68 | 217 | 5.0 | 9.0 | 0.00 | 0.00 | 0.00 | 68 | 1010.5 |
| 20260510041303 | 68 | 204 | 6.0 | 12.0 | 0.00 | 0.00 | 0.00 | 68 | 1010.6 |
| 20260510040302 | 68 | 234 | 6.0 | 7.0 | 0.00 | 0.00 | 0.00 | 68 | 1010.5 |
| 20260510040024 | 68 | 220 | 6.0 | 11.0 | 0.00 | 0.00 | 0.00 | 67 | 1010.4 |
| 20260510035232 | 68 | 193 | 5.0 | 11.0 | 0.00 | 0.00 | 0.00 | 67 | 1010.4 |
| 20260510034730 | 68 | 244 | 6.0 | 10.0 | 0.00 | 0.00 | 0.00 | 66 | 1010.4 |
| 20260510034231 | 68 | 178 | 4.0 | 9.0 | 0.00 | 0.00 | 0.00 | 66 | 1010.4 |
| 20260510033730 | 68 | 237 | 4.0 | 9.0 | 0.00 | 0.00 | 0.00 | 66 | 1010.4 |
| 20260510033232 | 69 | 206 | 5.0 | 11.0 | 0.00 | 0.00 | 0.00 | 65 | 1010.2 |
| 20260510032725 | 68 | 230 | 5.0 | 13.0 | 0.00 | 0.00 | 0.00 | 65 | 1010.4 |
| 20260510032219 | 68 | 207 | 5.0 | 13.0 | 0.00 | 0.00 | 0.00 | 65 | 1010.4 |
| 20260510031712 | 68 | 199 | 6.0 | 9.0 | 0.00 | 0.00 | 0.00 | 64 | 1010.2 |
| 20260510031207 | 68 | 197 | 3.0 | 7.0 | 0.00 | 0.00 | 0.00 | 64 | 1010.2 |
| 20260510030703 | 68 | 193 | 3.0 | 7.0 | 0.00 | 0.00 | 0.00 | 64 | 1010.2 |
| 20260510030202 | 69 | 200 | 4.0 | 10.0 | 0.00 | 0.00 | 0.00 | 64 | 1010.2 |
| 20260510025703 | 69 | 216 | 6.0 | 10.0 | 0.00 | 0.00 | 0.00 | 64 | 1010.1 |
| 20260510025202 | 69 | 231 | 4.0 | 10.0 | 0.00 | 0.00 | 0.00 | 64 | 1010.0 |
| 20260510024702 | 69 | 206 | 4.0 | 16.0 | 0.00 | 0.00 | 0.00 | 64 | 1010.0 |
| 20260510024201 | 69 | 202 | 6.0 | 16.0 | 0.00 | 0.00 | 0.00 | 63 | 1010.1 |
| 20260510023703 | 69 | 173 | 3.0 | 10.0 | 0.00 | 0.00 | 0.00 | 63 | 1009.9 |
| 20260510023202 | 69 | 197 | 5.0 | 10.0 | 0.00 | 0.00 | 0.00 | 62 | 1009.9 |
| 20260510022703 | 69 | 204 | 4.0 | 7.0 | 0.00 | 0.00 | 0.00 | 62 | 1009.8 |
| 20260510022203 | 69 | 199 | 4.0 | 6.0 | 0.00 | 0.00 | 0.00 | 62 | 1009.8 |
| 20260510021701 | 69 | 200 | 4.0 | 6.0 | 0.00 | 0.00 | 0.00 | 62 | 1009.8 |
| 20260510021202 | 70 | 196 | 4.0 | 9.0 | 0.00 | 0.00 | 0.00 | 61 | 1009.7 |
| 20260510020928 | 70 | 200 | 5.0 | 9.0 | 0.00 | 0.00 | 0.00 | 61 | 1009.7 |
| 20260510020203 | 70 | 197 | 4.0 | 9.0 | 0.00 | 0.00 | 0.00 | 60 | 1009.6 |
| 20260510015657 | 70 | 186 | 6.0 | 11.0 | 0.00 | 0.00 | 0.00 | 60 | 1009.4 |
| 20260510015152 | 70 | 213 | 3.0 | 11.0 | 0.00 | 0.00 | 0.00 | 60 | 1009.4 |
| 20260510014640 | 70 | 183 | 5.0 | 10.0 | 0.00 | 0.00 | 0.00 | 60 | 1009.4 |
| 20260510014138 | 70 | 192 | 5.0 | 9.0 | 0.00 | 0.00 | 0.00 | 59 | 1009.2 |
| 20260510013636 | 71 | 182 | 6.0 | 10.0 | 0.00 | 0.00 | 0.00 | 59 | 1009.2 |
| 20260510013136 | 71 | 175 | 5.0 | 10.0 | 0.00 | 0.00 | 0.00 | 58 | 1009.2 |
| 20260510012633 | 71 | 186 | 6.0 | 9.0 | 0.00 | 0.00 | 0.00 | 58 | 1009.3 |
| 20260510012144 | 71 | 190 | 4.0 | 6.0 | 0.00 | 0.00 | 0.00 | 58 | 1009.2 |
| 20260510011131 | 71 | 190 | 4.0 | 7.0 | 0.00 | 0.00 | 0.00 | 57 | 1009.1 |
| 20260510010631 | 71 | 179 | 5.0 | 7.0 | 0.00 | 0.00 | 0.00 | 57 | 1009.0 |
| 20260510010129 | 72 | 178 | 3.0 | 6.0 | 0.00 | 0.00 | 0.00 | 56 | 1009.0 |
| 20260510005630 | 72 | 200 | 3.0 | 6.0 | 0.00 | 0.00 | 0.00 | 56 | 1008.9 |
| 20260510005129 | 72 | 178 | 4.0 | 6.0 | 0.00 | 0.00 | 0.00 | 55 | 1009.0 |
| 20260510004630 | 72 | 176 | 4.0 | 6.0 | 0.00 | 0.00 | 0.00 | 55 | 1008.8 |
| 20260510004130 | 72 | 183 | 3.0 | 5.0 | 0.00 | 0.00 | 0.00 | 54 | 1008.8 |
| 20260510003905 | 73 | 183 | 3.0 | 4.0 | 0.00 | 0.00 | 0.00 | 54 | 1008.7 |
| 20260510003129 | 73 | 183 | 3.0 | 5.0 | 0.00 | 0.00 | 0.00 | 53 | 1008.7 |
| 20260510002907 | 73 | 183 | 4.0 | 5.0 | 0.00 | 0.00 | 0.00 | 53 | 1008.6 |
| 20260510002125 | 74 | 183 | 2.0 | 5.0 | 0.00 | 0.00 | 0.00 | 52 | 1008.5 |
| 20260510001626 | 74 | 183 | 3.0 | 4.0 | 0.00 | 0.00 | 0.00 | 51 | 1008.5 |
| 20260510001118 | 74 | 183 | 2.0 | 5.0 | 0.00 | 0.00 | 0.00 | 51 | 1008.3 |
| 20260510000613 | 74 | 183 | 4.0 | 7.0 | 0.00 | 0.00 | 0.00 | 51 | 1008.3 |
| 20260510000111 | 75 | 176 | 3.0 | 7.0 | 0.00 | 0.00 | 0.00 | 50 | 1008.4 |
| 20260509235602 | 75 | 223 | 2.0 | 7.0 | 0.00 | 0.00 | 0.00 | 49 | 1008.2 |
| 20260509235103 | 75 | 185 | 5.0 | 7.0 | 0.00 | 0.00 | 0.00 | 49 | 1008.2 |
| 20260509234604 | 76 | 179 | 4.0 | 6.0 | 0.00 | 0.00 | 0.00 | 48 | 1008.0 |
| 20260509234103 | 76 | 204 | 4.0 | 9.0 | 0.00 | 0.00 | 0.00 | 47 | 1008.0 |
| 20260509233601 | 76 | 209 | 2.0 | 9.0 | 0.00 | 0.00 | 0.00 | 47 | 1008.1 |
| 20260509233101 | 76 | 193 | 3.0 | 7.0 | 0.00 | 0.00 | 0.00 | 47 | 1008.2 |
| 20260509232602 | 76 | 212 | 4.0 | 7.0 | 0.00 | 0.00 | 0.00 | 46 | 1008.2 |
| 20260509232057 | 76 | 209 | 3.0 | 9.0 | 0.00 | 0.00 | 0.00 | 46 | 1008.2 |
| 20260509231542 | 76 | 189 | 4.0 | 10.0 | 0.00 | 0.00 | 0.00 | 46 | 1008.2 |
| 20260509231039 | 77 | 199 | 4.0 | 10.0 | 0.00 | 0.00 | 0.00 | 45 | 1008.1 |
| 20260509230539 | 77 | 206 | 4.0 | 10.0 | 0.00 | 0.00 | 0.00 | 45 | 1008.1 |
| 20260509230031 | 77 | 212 | 4.0 | 7.0 | 0.00 | 0.00 | 0.00 | 44 | 1008.2 |
| 20260509225530 | 78 | 185 | 3.0 | 9.0 | 0.00 | 0.00 | 0.00 | 44 | 1008.1 |
| 20260509225306 | 77 | 243 | 5.0 | 11.0 | 0.00 | 0.00 | 0.00 | 44 | 1008.0 |
| 20260509224530 | 78 | 200 | 6.0 | 11.0 | 0.00 | 0.00 | 0.00 | 43 | 1007.9 |
| 20260509224030 | 78 | 213 | 4.0 | 10.0 | 0.00 | 0.00 | 0.00 | 43 | 1008.0 |
| 20260509223529 | 78 | 238 | 6.0 | 13.0 | 0.00 | 0.00 | 0.00 | 43 | 1007.9 |
| 20260509223031 | 78 | 221 | 8.0 | 13.0 | 0.00 | 0.00 | 0.00 | 43 | 1007.9 |
| 20260509222529 | 78 | 210 | 6.0 | 12.0 | 0.00 | 0.00 | 0.00 | 44 | 1007.9 |
| 20260509222035 | 77 | 224 | 4.0 | 11.0 | 0.00 | 0.00 | 0.00 | 44 | 1007.9 |
| 20260509221529 | 77 | 230 | 7.0 | 11.0 | 0.00 | 0.00 | 0.00 | 44 | 1008.0 |
| 20260509221030 | 77 | 199 | 6.0 | 9.0 | 0.00 | 0.00 | 0.00 | 45 | 1008.0 |
| 20260509220528 | 77 | 224 | 5.0 | 7.0 | 0.00 | 0.00 | 0.00 | 45 | 1008.0 |
| 20260509220030 | 77 | 199 | 4.0 | 7.0 | 0.00 | 0.00 | 0.00 | 46 | 1008.0 |
| 20260509215530 | 77 | 204 | 4.0 | 10.0 | 0.00 | 0.00 | 0.00 | 46 | 1008.0 |
| 20260509215031 | 77 | 227 | 5.0 | 10.0 | 0.00 | 0.00 | 0.00 | 46 | 1008.0 |
| 20260509214806 | 76 | 247 | 4.0 | 9.0 | 0.00 | 0.00 | 0.00 | 46 | 1007.8 |
| 20260509214031 | 77 | 240 | 5.0 | 13.0 | 0.00 | 0.00 | 0.00 | 45 | 1007.8 |
| 20260509213530 | 77 | 251 | 7.0 | 13.0 | 0.00 | 0.00 | 0.00 | 45 | 1007.9 |
| 20260509213031 | 77 | 209 | 7.0 | 12.0 | 0.00 | 0.00 | 0.00 | 44 | 1007.8 |
| 20260509212529 | 78 | 189 | 7.0 | 11.0 | 0.00 | 0.00 | 0.00 | 45 | 1007.9 |
| 20260509212030 | 78 | 195 | 6.0 | 15.0 | 0.00 | 0.00 | 0.00 | 44 | 1007.9 |
| 20260509211530 | 78 | 196 | 6.0 | 15.0 | 0.00 | 0.00 | 0.00 | 44 | 1007.9 |
| 20260509211308 | 78 | 195 | 7.0 | 14.0 | 0.00 | 0.00 | 0.00 | 45 | 1007.9 |
| 20260509210529 | 78 | 182 | 7.0 | 14.0 | 0.00 | 0.00 | 0.00 | 44 | 1007.9 |
| 20260509210031 | 78 | 190 | 7.0 | 13.0 | 0.00 | 0.00 | 0.00 | 45 | 1008.0 |
| 20260509205529 | 78 | 164 | 7.0 | 15.0 | 0.00 | 0.00 | 0.00 | 45 | 1007.9 |
| 20260509205031 | 78 | 216 | 10.0 | 15.0 | 0.00 | 0.00 | 0.00 | 44 | 1007.7 |
| 20260509204529 | 78 | 245 | 6.0 | 14.0 | 0.00 | 0.00 | 0.00 | 45 | 1007.8 |
| 20260509204031 | 78 | 213 | 9.0 | 14.0 | 0.00 | 0.00 | 0.00 | 44 | 1007.7 |
| 20260509203529 | 78 | 219 | 7.0 | 14.0 | 0.00 | 0.00 | 0.00 | 45 | 1007.7 |
| 20260509203030 | 77 | 200 | 6.0 | 15.0 | 0.00 | 0.00 | 0.00 | 45 | 1007.7 |
| 20260509202530 | 78 | 204 | 9.0 | 15.0 | 0.00 | 0.00 | 0.00 | 44 | 1007.6 |
| 20260509202032 | 78 | 197 | 6.0 | 17.0 | 0.00 | 0.00 | 0.00 | 44 | 1007.7 |
| 20260509201805 | 77 | 179 | 9.0 | 17.0 | 0.00 | 0.00 | 0.00 | 45 | 1007.9 |
| 20260509201030 | 77 | 202 | 7.0 | 17.0 | 0.00 | 0.00 | 0.00 | 44 | 1007.9 |
| 20260509200529 | 77 | 207 | 8.0 | 17.0 | 0.00 | 0.00 | 0.00 | 44 | 1008.0 |
| 20260509200031 | 77 | 217 | 6.0 | 13.0 | 0.00 | 0.00 | 0.00 | 44 | 1007.9 |
| 20260509195805 | 76 | 231 | 9.0 | 17.0 | 0.00 | 0.00 | 0.00 | 45 | 1008.0 |
| 20260509195031 | 76 | 207 | 9.0 | 17.0 | 0.00 | 0.00 | 0.00 | 45 | 1008.2 |
| 20260509194529 | 76 | 248 | 10.0 | 15.0 | 0.00 | 0.00 | 0.00 | 44 | 1008.2 |
| 20260509194030 | 77 | 221 | 11.0 | 15.0 | 0.00 | 0.00 | 0.00 | 43 | 1008.2 |
| 20260509193529 | 76 | 221 | 6.0 | 15.0 | 0.00 | 0.00 | 0.00 | 45 | 1008.3 |
| 20260509193033 | 75 | 173 | 10.0 | 15.0 | 0.00 | 0.00 | 0.00 | 45 | 1008.5 |
| 20260509192017 | 75 | 206 | 7.0 | 15.0 | 0.00 | 0.00 | 0.00 | 46 | 1008.5 |
| 20260509191509 | 75 | 189 | 9.0 | 17.0 | 0.00 | 0.00 | 0.00 | 45 | 1008.5 |